sat.trackr.live / text

‹ back to catalog

STARLINK-36319

NORAD 67970 · 2026-038K

PAYLOAD ACTIVE UNKNOWN

§ Identity

Operator
Country
US
Launch date
2026-02-25
Launch site
AFWTR
Launch vehicle
Mass (kg)
RCS (m²)

Purposes: comms

External: N2YO · Heavens-Above · Gunter

§ Orbital elements

Epoch: 2026-05-25T00:06:57.900384Z

Period
93.91 min
Inclination
97.2846°
Eccentricity
0.0001405
Mean motion
15.33435758 rev/d
Perigee alt
464.6 km
Apogee alt
466.5 km
Semi-major
6,843.7 km
B*
3.4904e-4
RAAN
155.0188°
Arg perigee
95.1701°
Mean anomaly
264.9702°
Rev number
1,493

§ Raw data

STARLINK-363191 67970U 26038K   26145.00483681  .00011207  00000+0  34904-3 0  99992 67970  97.2846 155.0188 0001405  95.1701 264.9702 15.33435758 14939

JSON: /api/v1/satellites/67970 · /tle

For live sub-satellite position, see the globe view (requires WebGL).

§ Visibility from observer

Set your observer location to see the next 7 days of passes ≥ 10°. The values pass through the URL so the page stays shareable.

No JS? Fill the form by hand. The geolocation button needs JavaScript.